[[{"header":{"parameterUnit":"m.s-1","parameterCategory":2,"la1":30.2991,"la2":30.254,"lo1":-89.0895,"lo2":-89.0444,"dy":0.0017,"dx":0.0017,"nx":28,"ny":28,"refTime":"2025-05-30T09:00:00:Z","depth":"0","parameterNumber":2,"parameterNumberName":"U-component_of_CURRENTS"},"data":[0,0,0,0,0,0,0,0,0,0,0,0,0,0,0,0,0,0,0,0,0,0,0,0,0,0,0,0,0,0,0,0,0,0,0,0,0,0,0,0,0,0,0,0,0,0,0,0,0,0,0,0,0,0,0,0,0,0,0.2745,0.2746,0,0.2777,0.2777,0.2777,0.2773,0.2772,0.2772,0.2772,0.2767,0.2767,0.2767,0,0,0,0,0,0,0,0,0,0,0,0,0,0.2721,0.272,0.2745,0.2746,0.2747,0.2777,0.2777,0.2777,0.2773,0.2772,0.2772,0.2772,0.2767,0.2767,0.2767,0,0,0,0,0,0,0,0,0,0,0,0,0,0.2735,0.272,0.2745,0.2752,0.2753,0.2777,0.2777,0.2777,0.2773,0.2772,0.2772,0.2772,0.2767,0.2767,0.2767,0.2771,0,0,0.2767,0.2767,0,0,0,0,0,0,0,0,0.2734,0.2736,0.275,0.2751,0.2753,0.2774,0.2766,0.2774,0.2773,0.2761,0.2772,0.2772,0.2769,0.2769,0.277,0.2771,0.277,0.2767,0.2767,0.2767,0.2767,0,0,0,0,0,0,0,0.2733,0.2735,0.2753,0.2751,0.2753,0.2766,0.2767,0.2768,0.2762,0.2762,0.2762,0.2773,0.2769,0.277,0.2769,0.277,0.2767,0.2767,0.2767,0.2767,0.2812,0.2814,0,0,0,0,0,0,0.2736,0.2733,0.2753,0.2755,0.2748,0.2767,0.2768,0.2764,0.2762,0.2763,0.2773,0.2773,0.277,0.2769,0.2769,0.2799,0.2767,0.2767,0.2767,0.2811,0.2813,0.2814,0,0,0,0,0,0,0.2735,0.2737,0.2751,0.2749,0.2753,0.2768,0.2763,0.2765,0.2774,0.2772,0.2771,0.2782,0.277,0.2769,0.2782,0.2798,0.2767,0.2767,0.281,0.2812,0.2813,0.2843,0,0,0,0,0,0,0.2734,0.2736,0.2729,0.2749,0.2753,0.2778,0.2764,0.2766,0.2782,0.2782,0.2779,0.2778,0.2769,0.2782,0.2782,0.2797,0.2767,0.2808,0.2811,0.2813,0.284,0.2846,0.285,0,0,0,0,0,0.2733,0.2722,0.2728,0.2731,0.2744,0.278,0.2783,0.2791,0.2783,0.2795,0.2792,0.2779,0.2797,0.2783,0.2783,0.2798,0.2807,0.281,0.2813,0.2838,0.2845,0.285,0,0,0,0,0,0,0.2694,0.2722,0.2729,0.2723,0.2758,0.2781,0.2786,0.2797,0.2804,0.2797,0.2791,0.279,0.2811,0.2803,0.2788,0.2821,0.2801,0.2804,0.2821,0.2827,0.2832,0.2837,0.2767,0,0,0,0,0,0.2687,0.2695,0.2729,0.2728,0.2743,0.2767,0.278,0.2792,0.2806,0.2808,0.2806,0.2807,0.2821,0.2822,0.283,0.2842,0.2846,0.2854,0.2859,0.2863,0.2869,0.2891,0.2898,0.2823,0.2823,0.2823,0,0,0.2672,0.269,0.2692,0.2723,0.2742,0.2771,0.2773,0.2798,0.2819,0.2806,0.2817,0.2824,0.283,0.2849,0.2857,0.2843,0.2888,0.2866,0.287,0.2873,0.2894,0.2901,0.2908,0.2825,0.2824,0.2824,0,0,0.2662,0.2664,0.2676,0.2708,0.275,0.2771,0.2784,0.2814,0.2822,0.2843,0.2844,0.2865,0.2868,0.2885,0.2892,0.2929,0.2917,0.2929,0.295,0.2971,0.2977,0.2983,0.3001,0.3008,0.2926,0.2926,0.2926,0,0.2644,0.2659,0.2687,0.2714,0.2739,0.2774,0.28,0.282,0.2849,0.2853,0.2849,0.2879,0.2888,0.2923,0.2941,0.294,0.2945,0.2924,0.2977,0.2982,0.2987,0.3005,0.3012,0.2928,0.2927,0.2927,0.2927,0,0.2657,0.2669,0.268,0.2726,0.2758,0.2786,0.2828,0.2845,0.2855,0.2871,0.2901,0.2922,0.2937,0.2953,0.2959,0.3004,0.2995,0.2983,0.2959,0.2996,0.3013,0.3019,0.293,0.2929,0.2929,0.2928,0,0,0.2609,0.2676,0.2677,0.2692,0.2766,0.2782,0.2826,0.2864,0.2875,0.2904,0.2925,0.2967,0.2974,0.2985,0.3003,0.3032,0.3082,0.3025,0.3025,0.3038,0.3128,0.3032,0.303,0.3073,0.3075,0.3076,0.3126,0,0.2609,0.2644,0.2692,0.2722,0.2738,0.2792,0.2826,0.2863,0.2892,0.2918,0.2953,0.2983,0.2988,0.3005,0.3035,0.3078,0.3101,0.307,0.3094,0.3095,0.3001,0.3035,0.2885,0.2909,0.3133,0.3134,0.3134,0,0.26,0.2623,0.2653,0.27,0.2714,0.2742,0.2787,0.2825,0.2884,0.2906,0.2946,0.2981,0.3047,0.3041,0.3116,0.3094,0.3113,0.3139,0.3141,0.3045,0.3012,0.2908,0.2912,0.2835,0.3145,0.3144,0.3143,0,0.2527,0.2586,0.2601,0.2622,0.2691,0.2706,0.2742,0.2805,0.2834,0.2905,0.2938,0.3002,0.3047,0.3088,0.3148,0.3135,0.3223,0.3204,0.3134,0.3128,0.3001,0.2981,0.2926,0.3245,0.3245,0.3245,0.3245,0,0.2495,0.25,0.2559,0.2562,0.2576,0.2643,0.2668,0.2715,0.2792,0.283,0.2921,0.2967,0.3062,0.3126,0.316,0.3168,0.3225,0.3145,0.3134,0.3007,0.2987,0.2914,0.2891,0.3247,0.3247,0.3246,0.3246,0,0.2418,0.2458,0.247,0.2526,0.2541,0.2546,0.2624,0.2643,0.2729,0.2793,0.2825,0.2951,0.303,0.3114,0.3197,0.3171,0.31,0.3184,0.3028,0.2996,0.2815,0.2799,0.267,0.2595,0.3101,0.3099,0.3097,0,0.2385,0.2383,0.2426,0.243,0.2456,0.248,0.2503,0.2592,0.2631,0.2771,0.2799,0.2915,0.2972,0.3057,0.3049,0.3075,0.3027,0.2939,0.2876,0.2784,0.2761,0.2692,0.2634,0.2734,0.273,0.2726,0.2723,0,0.2328,0.2344,0.2359,0.236,0.2374,0.2393,0.2436,0.2464,0.2579,0.2636,0.2723,0.2785,0.2868,0.2825,0.2858,0.2853,0.2771,0.2858,0.2807,0.25,0.2379,0.2307,0.2734,0.2689,0.2693,0.2695,0.2697,0.2698,0.2286,0.228,0.2292,0.2288,0.23,0.2301,0.2287,0.2348,0.2388,0.2454,0.2577,0.2601,0.2627,0.2636,0.262,0.2478,0.2521,0.2392,0.2395,0.2346,0.221,0.2556,0.2465,0.2467,0.2469,0.247,0.2471,0,0.2217,0.2217,0.2217,0.2198,0.217,0.2206,0.2231,0.2203,0.2204,0.2287,0.2326,0.231,0.2255,0.2269,0.2157,0.2044,0.1977,0.199,0.1873,0.1851,0.2194,0.2114,0.1886,0.1886,0.1887,0.1887,0.1887,0.1887,0.218,0.2147,0.2142,0.2065,0.2052,0.198,0.1973,0.1952,0.1976,0.1942,0.1917,0.1953,0.2016,0.1944,0.1802,0.175,0.1635,0.1529,0.1579,0.1835,0.1874,0.191,0.1829,0.1546,0.1546,0.1144,0.1141,0.1139]},{"header":{"parameterUnit":"m.s-1","parameterCategory":2,"la1":30.2991,"la2":30.254,"lo1":-89.0895,"lo2":-89.0444,"dy":0.0017,"dx":0.0017,"nx":28,"ny":28,"refTime":"2025-05-30T09:00:00:Z","depth":"0","parameterNumber":3,"parameterNumberName":"V-component_of_CURRENTS"},"data":[0,0,0,0,0,0,0,0,0,0,0,0,0,0,0,0,0,0,0,0,0,0,0,0,0,0,0,0,0,0,0,0,0,0,0,0,0,0,0,0,0,0,0,0,0,0,0,0,0,0,0,0,0,0,0,0,0,0,-0.0195,-0.0196,0,-0.0241,-0.0241,-0.0242,-0.0263,-0.0263,-0.0263,-0.0263,-0.0316,-0.0317,-0.0319,0,0,0,0,0,0,0,0,0,0,0,0,0,-0.0161,-0.0161,-0.0195,-0.0196,-0.0196,-0.0241,-0.0241,-0.0242,-0.0263,-0.0263,-0.0263,-0.0263,-0.0315,-0.0317,-0.0319,0,0,0,0,0,0,0,0,0,0,0,0,0,-0.0188,-0.0161,-0.0195,-0.0213,-0.0215,-0.0241,-0.0241,-0.0242,-0.0263,-0.0263,-0.0263,-0.0263,-0.0315,-0.0317,-0.0319,-0.0332,0,0,-0.0325,-0.0326,0,0,0,0,0,0,0,0,-0.0186,-0.0189,-0.0209,-0.0211,-0.0214,-0.0247,-0.0249,-0.0273,-0.0263,-0.0244,-0.0263,-0.0263,-0.0294,-0.0297,-0.0305,-0.0335,-0.0337,-0.0326,-0.0327,-0.0328,-0.0328,0,0,0,0,0,0,0,-0.0184,-0.0187,-0.0213,-0.021,-0.0213,-0.023,-0.0233,-0.0253,-0.0268,-0.0246,-0.0248,-0.0253,-0.0295,-0.0303,-0.0307,-0.0338,-0.0326,-0.0327,-0.0329,-0.033,-0.0379,-0.0379,0,0,0,0,0,0,-0.0177,-0.0185,-0.0212,-0.0214,-0.02,-0.023,-0.0234,-0.0236,-0.0268,-0.0273,-0.0253,-0.0254,-0.03,-0.0304,-0.0309,-0.0312,-0.0328,-0.033,-0.0331,-0.0379,-0.0379,-0.0379,0,0,0,0,0,0,-0.0176,-0.0179,-0.021,-0.0201,-0.0207,-0.0231,-0.0232,-0.0237,-0.0245,-0.0273,-0.0278,-0.0257,-0.03,-0.0306,-0.0323,-0.0314,-0.0331,-0.0333,-0.0378,-0.0379,-0.0379,-0.0327,0,0,0,0,0,0,-0.0175,-0.0178,-0.0175,-0.0201,-0.0207,-0.0219,-0.0233,-0.0238,-0.0248,-0.025,-0.0278,-0.0283,-0.03,-0.0319,-0.0325,-0.0318,-0.0334,-0.0378,-0.0379,-0.0379,-0.0328,-0.0325,-0.0322,0,0,0,0,0,-0.0174,-0.0165,-0.0174,-0.0178,-0.0202,-0.0219,-0.0223,-0.0241,-0.0248,-0.0248,-0.0268,-0.0282,-0.0324,-0.0321,-0.0327,-0.032,-0.0378,-0.0378,-0.0379,-0.033,-0.0326,-0.0322,0,0,0,0,0,0,-0.0143,-0.0167,-0.0178,-0.0176,-0.0195,-0.0223,-0.0222,-0.0239,-0.0255,-0.0254,-0.0283,-0.0289,-0.0302,-0.0321,-0.0317,-0.0336,-0.0354,-0.0355,-0.0314,-0.0311,-0.0308,-0.0286,-0.0336,0,0,0,0,0,-0.0136,-0.014,-0.0165,-0.0164,-0.0169,-0.0196,-0.0205,-0.0219,-0.0238,-0.0245,-0.0266,-0.0288,-0.0308,-0.0316,-0.0337,-0.0346,-0.0349,-0.0348,-0.0344,-0.0341,-0.0329,-0.0326,-0.0321,-0.0379,-0.0379,-0.0379,0,0,-0.0126,-0.0138,-0.0141,-0.0159,-0.0172,-0.0173,-0.0201,-0.0209,-0.0207,-0.0248,-0.0249,-0.0279,-0.0309,-0.0319,-0.0326,-0.0332,-0.0327,-0.0341,-0.0338,-0.0328,-0.0325,-0.0319,-0.0314,-0.0379,-0.0379,-0.0379,0,0,-0.0102,-0.0115,-0.0107,-0.012,-0.0138,-0.0154,-0.0155,-0.018,-0.0186,-0.0199,-0.0226,-0.0246,-0.0278,-0.0293,-0.0307,-0.03,-0.0312,-0.0313,-0.0275,-0.0272,-0.0267,-0.0262,-0.0255,-0.025,-0.0308,-0.0308,-0.0308,0,-0.0086,-0.008,-0.0108,-0.0102,-0.0103,-0.0141,-0.0129,-0.0143,-0.0171,-0.0168,-0.019,-0.0231,-0.0262,-0.0266,-0.0269,-0.029,-0.029,-0.0285,-0.0266,-0.0261,-0.0257,-0.0251,-0.0246,-0.0306,-0.0306,-0.0306,-0.0307,0,-0.0058,-0.0053,-0.0047,-0.0052,-0.0058,-0.0055,-0.0077,-0.0078,-0.0095,-0.0113,-0.0124,-0.017,-0.019,-0.021,-0.024,-0.0231,-0.0241,-0.0262,-0.0269,-0.0248,-0.0243,-0.0239,-0.0302,-0.0303,-0.0304,-0.0305,0,0,-0.0016,-0.0024,-0.0021,-0.0011,-0.0028,-0.0027,-0.0018,-0.0017,-0.0003,-0.004,-0.0022,-0.0076,-0.0105,-0.0123,-0.0165,-0.0172,-0.0155,-0.0204,-0.0205,-0.0185,-0.0142,-0.0152,-0.0149,-0.0172,-0.0171,-0.017,-0.0148,0,0.002,0.0047,0.003,0.0057,0.0073,0.0049,0.0062,0.0056,0.0041,0.0047,0.0005,-0.0006,-0.0071,-0.0082,-0.0099,-0.014,-0.0142,-0.0158,-0.0176,-0.0176,-0.0178,-0.0144,-0.012,-0.0099,-0.0144,-0.0144,-0.0143,0,0.0062,0.0075,0.0108,0.0123,0.0129,0.0137,0.0161,0.0165,0.016,0.015,0.013,0.0089,0.0068,0.0009,-0.0033,-0.004,-0.0083,-0.0118,-0.0118,-0.0141,-0.0178,-0.013,-0.009,-0.0169,-0.0137,-0.0137,-0.0138,0,0.0116,0.0135,0.0166,0.0168,0.0174,0.0195,0.0204,0.0203,0.0227,0.0218,0.0237,0.0186,0.0178,0.0118,0.0031,0.0005,-0.0008,-0.0051,-0.0097,-0.0098,-0.0087,-0.0089,-0.0113,-0.0068,-0.0068,-0.0068,-0.0068,0,0.0166,0.0192,0.0195,0.0212,0.0261,0.0247,0.0298,0.0297,0.0316,0.0362,0.0294,0.0322,0.0205,0.0173,0.0082,0.0015,0.0035,-0.0074,-0.0088,-0.007,-0.007,-0.0147,-0.0205,-0.0068,-0.0068,-0.0068,-0.0068,0,0.0215,0.0215,0.0255,0.0274,0.0286,0.0323,0.0368,0.0406,0.0411,0.0474,0.0481,0.0441,0.0399,0.0285,0.0193,0.0095,-0.002,-0.001,0.0018,0.0007,-0.0124,-0.018,-0.0219,-0.0255,-0.0051,-0.0051,-0.0051,0,0.0241,0.0265,0.0303,0.0337,0.0348,0.0399,0.044,0.0455,0.0505,0.0558,0.0604,0.0575,0.0575,0.0433,0.0255,0.0114,0.0009,0.0024,-0.0031,-0.0111,-0.0183,-0.0227,-0.0258,0.0007,0.0007,0.0007,0.0008,0,0.029,0.0301,0.0333,0.0402,0.0451,0.0511,0.0576,0.0632,0.0669,0.0732,0.0805,0.0812,0.0674,0.0531,0.0312,0.0203,-0.0028,0.0026,-0.0058,-0.0134,-0.0181,-0.0228,-0.0031,0.0011,0.0011,0.001,0.001,0.001,0.0327,0.036,0.0403,0.047,0.0531,0.0616,0.0681,0.0762,0.086,0.096,0.0958,0.0996,0.0772,0.048,0.0314,0.002,-0.0002,-0.0076,-0.0133,-0.0167,-0.0214,-0.001,0.0009,0.0009,0.0009,0.0008,0.0008,0,0.0371,0.0406,0.047,0.0547,0.0622,0.0645,0.0763,0.0839,0.0968,0.1065,0.1131,0.1055,0.0797,0.0506,0.0103,-0.0102,-0.0183,-0.0214,-0.0268,-0.0291,-0.0099,-0.011,-0.0113,-0.0113,-0.0113,-0.0113,-0.0113,-0.0113,0.0395,0.0454,0.0482,0.0604,0.0666,0.0771,0.0843,0.0961,0.1055,0.1175,0.1204,0.1201,0.0977,0.0293,-0.0155,-0.0253,-0.0401,-0.0428,-0.0511,-0.0383,-0.0375,-0.0367,-0.039,-0.0452,-0.0453,-0.0664,-0.0666,-0.0668]}],[{"header":{"parameterUnit":"m.s-1","parameterCategory":2,"la1":30.2991,"la2":30.254,"lo1":-89.0895,"lo2":-89.0444,"dy":0.0017,"dx":0.0017,"nx":28,"ny":28,"refTime":"2025-05-30T09:00:00:Z","depth":"2","parameterNumber":2,"parameterNumberName":"U-component_of_CURRENTS"},"data":[0,0,0,0,0,0,0,0,0,0,0,0,0,0,0,0,0,0,0,0,0,0,0,0,0,0,0,0,0,0,0,0,0,0,0,0,0,0,0,0,0,0,0,0,0,0,0,0,0,0,0,0,0,0,0,0,0,0,0.2123,0.2123,0,0.21,0.2099,0.2098,0.2076,0.2076,0.2077,0.2077,0.2082,0.2082,0.2082,0,0,0,0,0,0,0,0,0,0,0,0,0,0.2101,0.2101,0.2123,0.2123,0.2124,0.21,0.2099,0.2098,0.2076,0.2076,0.2077,0.2077,0.2082,0.2082,0.2082,0,0,0,0,0,0,0,0,0,0,0,0,0,0.2092,0.2101,0.2123,0.2114,0.2113,0.21,0.2099,0.2098,0.2076,0.2076,0.2077,0.2077,0.2082,0.2082,0.2082,0.2075,0,0,0.2082,0.2082,0,0,0,0,0,0,0,0,0.2093,0.2092,0.2115,0.2114,0.2114,0.2096,0.2093,0.2093,0.2076,0.2084,0.2077,0.2077,0.2093,0.2092,0.2078,0.2075,0.2075,0.2082,0.2082,0.2082,0.2082,0,0,0,0,0,0,0,0.2093,0.2093,0.2108,0.2115,0.2115,0.2094,0.2093,0.2092,0.2083,0.2084,0.2083,0.2089,0.2092,0.2079,0.2079,0.2075,0.2082,0.2082,0.2082,0.2081,0.2132,0.2133,0,0,0,0,0,0,0.2109,0.2094,0.2109,0.2108,0.211,0.2095,0.2094,0.2097,0.2083,0.2082,0.2089,0.2088,0.2079,0.2079,0.2079,0.2123,0.2082,0.2081,0.2081,0.213,0.2132,0.2133,0,0,0,0,0,0,0.2109,0.2111,0.211,0.2105,0.2104,0.2096,0.2099,0.2096,0.2104,0.2087,0.2086,0.2103,0.2079,0.2079,0.2107,0.2121,0.2081,0.2081,0.2129,0.2131,0.2133,0.2178,0,0,0,0,0,0,0.2108,0.2111,0.2109,0.2106,0.2105,0.212,0.2099,0.2096,0.2108,0.2108,0.2099,0.2098,0.2079,0.2107,0.2107,0.2121,0.2081,0.2127,0.213,0.2132,0.2174,0.2181,0.2187,0,0,0,0,0,0.2107,0.2107,0.2108,0.211,0.2106,0.2122,0.2119,0.211,0.2109,0.2117,0.212,0.2099,0.2123,0.2109,0.2108,0.2122,0.2126,0.2129,0.2132,0.2172,0.218,0.2187,0,0,0,0,0,0,0.2095,0.2105,0.2107,0.2109,0.2125,0.2121,0.2123,0.2126,0.213,0.2127,0.2119,0.2119,0.2146,0.2135,0.212,0.2146,0.212,0.2123,0.2151,0.2158,0.2164,0.2174,0.2081,0,0,0,0,0,0.2094,0.2098,0.2112,0.2117,0.2129,0.2132,0.2135,0.2131,0.2139,0.2141,0.2139,0.2141,0.2154,0.216,0.216,0.2177,0.2176,0.2186,0.2193,0.2198,0.2207,0.2237,0.2247,0.2144,0.2144,0.2144,0,0,0.209,0.2098,0.2099,0.2116,0.2124,0.2139,0.2134,0.2144,0.2158,0.2142,0.2159,0.2163,0.2166,0.2183,0.2193,0.2178,0.2224,0.2202,0.2206,0.2213,0.2241,0.2251,0.226,0.2146,0.2146,0.2145,0,0,0.2092,0.2099,0.2105,0.2121,0.214,0.2145,0.216,0.2168,0.2175,0.22,0.2191,0.2214,0.2225,0.2228,0.2234,0.2279,0.2258,0.2276,0.2312,0.2341,0.2349,0.2357,0.2356,0.2363,0.2277,0.2277,0.2277,0,0.2083,0.2098,0.2111,0.2126,0.2139,0.2159,0.2173,0.2187,0.22,0.2208,0.2215,0.2246,0.2249,0.2279,0.2297,0.2292,0.2297,0.228,0.2349,0.2356,0.2363,0.236,0.2368,0.2279,0.2279,0.2279,0.2279,0,0.2096,0.2106,0.2119,0.2144,0.2159,0.2177,0.2204,0.222,0.2239,0.2245,0.2285,0.2301,0.2318,0.2326,0.2331,0.2377,0.236,0.2354,0.2328,0.2376,0.237,0.2377,0.2283,0.2282,0.2281,0.2281,0,0,0.2068,0.2116,0.2118,0.2128,0.2168,0.2175,0.2215,0.2245,0.2269,0.2294,0.2332,0.2367,0.2373,0.2383,0.2389,0.2423,0.2477,0.2418,0.2418,0.2412,0.2527,0.2454,0.2454,0.2486,0.2488,0.2489,0.2497,0,0.2073,0.2094,0.2124,0.2146,0.2156,0.2193,0.2231,0.2254,0.229,0.233,0.2362,0.2402,0.2396,0.2421,0.2453,0.2476,0.25,0.2474,0.2485,0.2485,0.2411,0.2461,0.2258,0.2244,0.2504,0.2505,0.2506,0,0.2065,0.2079,0.2101,0.2138,0.215,0.2173,0.2222,0.2258,0.232,0.2351,0.2394,0.2427,0.2483,0.2485,0.2537,0.2522,0.2533,0.2548,0.2548,0.2471,0.2425,0.2241,0.2247,0.2517,0.2516,0.2515,0.2514,0,0.2013,0.2055,0.207,0.2084,0.2138,0.216,0.2194,0.2252,0.2289,0.2371,0.2411,0.2467,0.2514,0.2546,0.2576,0.2568,0.2633,0.2613,0.255,0.2543,0.2367,0.2342,0.2657,0.2657,0.2657,0.2657,0.2657,0,0.1993,0.1999,0.2048,0.2054,0.2079,0.2123,0.2168,0.2216,0.2293,0.2334,0.2417,0.2461,0.2541,0.2585,0.2595,0.2588,0.2639,0.2567,0.2551,0.2375,0.2352,0.2587,0.2579,0.2658,0.2658,0.2658,0.2657,0,0.1936,0.1974,0.1986,0.2038,0.2057,0.207,0.215,0.2179,0.2265,0.2331,0.2367,0.247,0.2525,0.258,0.2637,0.2603,0.2612,0.2595,0.2372,0.233,0.2493,0.2487,0.2519,0.2517,0.2515,0.2513,0.2512,0,0.1915,0.1916,0.1961,0.1971,0.2,0.2035,0.2065,0.2152,0.2188,0.2316,0.2337,0.244,0.2471,0.2518,0.2501,0.2496,0.2572,0.2301,0.2251,0.2503,0.2484,0.2481,0.2478,0.2027,0.2022,0.2018,0.2014,0,0.1869,0.1889,0.1905,0.192,0.1945,0.1971,0.2018,0.2043,0.2147,0.2197,0.2253,0.2296,0.2357,0.2263,0.2283,0.2252,0.2286,0.2213,0.2544,0.2099,0.2041,0.2022,0.2035,0.1976,0.198,0.1983,0.1985,0.1986,0.1839,0.1834,0.1854,0.1861,0.1884,0.1889,0.1881,0.193,0.1961,0.2007,0.2102,0.2085,0.2112,0.2028,0.1962,0.1916,0.2077,0.1979,0.1991,0.2008,0.1955,0.1898,0.1794,0.1797,0.1799,0.1801,0.1803,0,0.1782,0.1783,0.179,0.1785,0.1765,0.1813,0.1831,0.1797,0.1779,0.1838,0.1856,0.1703,0.1641,0.1673,0.1538,0.1534,0.1514,0.1473,0.1429,0.1468,0.1503,0.1423,0.1122,0.112,0.1118,0.1116,0,0,0.1753,0.1725,0.1718,0.1659,0.1661,0.1605,0.1595,0.1558,0.1562,0.1508,0.1475,0.1585,0.1627,0.136,0.1322,0.1197,0.1326,0.1149,0.1697,0.1685,0.1717,0.1797,0.1719,0,0,0,0,0]},{"header":{"parameterUnit":"m.s-1","parameterCategory":2,"la1":30.2991,"la2":30.254,"lo1":-89.0895,"lo2":-89.0444,"dy":0.0017,"dx":0.0017,"nx":28,"ny":28,"refTime":"2025-05-30T09:00:00:Z","depth":"2","parameterNumber":3,"parameterNumberName":"V-component_of_CURRENTS"},"data":[0,0,0,0,0,0,0,0,0,0,0,0,0,0,0,0,0,0,0,0,0,0,0,0,0,0,0,0,0,0,0,0,0,0,0,0,0,0,0,0,0,0,0,0,0,0,0,0,0,0,0,0,0,0,0,0,0,0,0.0126,0.0125,0,0.0117,0.0117,0.0117,0.0102,0.0101,0.0101,0.0101,0.0075,0.0074,0.0074,0,0,0,0,0,0,0,0,0,0,0,0,0,0.0123,0.0123,0.0126,0.0125,0.0125,0.0117,0.0117,0.0117,0.0102,0.0101,0.0101,0.0101,0.0075,0.0075,0.0074,0,0,0,0,0,0,0,0,0,0,0,0,0,0.012,0.0123,0.0126,0.0117,0.0116,0.0117,0.0117,0.0117,0.0102,0.0101,0.0101,0.01,0.0075,0.0075,0.0074,0.0079,0,0,0.0072,0.0072,0,0,0,0,0,0,0,0,0.012,0.012,0.0118,0.0117,0.0116,0.011,0.0107,0.0103,0.0102,0.0107,0.0101,0.01,0.0086,0.0084,0.0083,0.0077,0.0076,0.0072,0.0072,0.0071,0.0071,0,0,0,0,0,0,0,0.012,0.012,0.0122,0.0118,0.0117,0.0112,0.0111,0.0106,0.0098,0.0106,0.0105,0.0105,0.0085,0.0084,0.0083,0.0076,0.0072,0.0071,0.0071,0.0071,0.0057,0.0057,0,0,0,0,0,0,0.0123,0.0121,0.0122,0.0122,0.0118,0.0112,0.0111,0.0113,0.0099,0.0096,0.0105,0.0104,0.0085,0.0083,0.0082,0.0084,0.0071,0.0071,0.007,0.0057,0.0057,0.0057,0,0,0,0,0,0,0.0123,0.0123,0.0123,0.0121,0.0121,0.0113,0.0114,0.0113,0.0109,0.0098,0.0095,0.0103,0.0085,0.0083,0.0075,0.0083,0.007,0.007,0.0057,0.0057,0.0057,0.009,0,0,0,0,0,0,0.0123,0.0123,0.0127,0.0121,0.0121,0.0126,0.0115,0.0113,0.011,0.0108,0.0095,0.0093,0.0084,0.0076,0.0074,0.0082,0.0069,0.0057,0.0057,0.0057,0.0089,0.0091,0.0093,0,0,0,0,0,0.0123,0.0131,0.0127,0.0128,0.0126,0.0127,0.0126,0.0118,0.011,0.0113,0.01,0.0093,0.0075,0.0075,0.0073,0.0081,0.0057,0.0057,0.0057,0.0088,0.0091,0.0093,0,0,0,0,0,0,0.0133,0.0131,0.0126,0.0134,0.0131,0.0124,0.0128,0.0119,0.0112,0.0113,0.0094,0.0091,0.0088,0.0077,0.0079,0.0075,0.0064,0.0064,0.0088,0.0091,0.0093,0.0106,0.0069,0,0,0,0,0,0.0137,0.0143,0.0137,0.0144,0.0143,0.0135,0.0134,0.0131,0.0124,0.012,0.0107,0.0095,0.0087,0.0083,0.0076,0.0075,0.0065,0.0077,0.0079,0.0081,0.0089,0.0076,0.0078,0.0057,0.0057,0.0057,0,0,0.0142,0.0143,0.0146,0.0147,0.0144,0.0154,0.0133,0.0139,0.0147,0.0119,0.0122,0.0104,0.0088,0.0088,0.0085,0.008,0.0081,0.0081,0.0083,0.009,0.0077,0.0079,0.0081,0.0057,0.0057,0.0057,0,0,0.0163,0.0157,0.0171,0.0172,0.0174,0.017,0.0171,0.0165,0.0161,0.016,0.0142,0.0128,0.0114,0.0106,0.01,0.0109,0.0093,0.0102,0.0125,0.0112,0.0114,0.0116,0.0104,0.0104,0.0103,0.0103,0.0103,0,0.0173,0.0187,0.0175,0.019,0.0197,0.0178,0.0198,0.0193,0.0185,0.0185,0.0166,0.0143,0.0126,0.0128,0.0126,0.0116,0.0103,0.0118,0.0116,0.0117,0.0118,0.0106,0.0106,0.0105,0.0105,0.0105,0.0104,0,0.0204,0.0216,0.0224,0.0238,0.0242,0.0256,0.0249,0.0251,0.0238,0.0229,0.0221,0.0191,0.0177,0.0165,0.0147,0.0147,0.0135,0.0121,0.0113,0.0123,0.0109,0.0108,0.0107,0.0107,0.0106,0.0106,0,0,0.0233,0.0245,0.025,0.0265,0.0271,0.028,0.0294,0.03,0.031,0.0286,0.0293,0.0261,0.0235,0.0226,0.0198,0.0182,0.0171,0.0154,0.0152,0.0148,0.0142,0.0125,0.0122,0.0155,0.0155,0.0155,0.0129,0,0.0266,0.0304,0.03,0.0336,0.0356,0.0346,0.0359,0.0362,0.035,0.035,0.0316,0.0308,0.0262,0.0253,0.0228,0.0191,0.0171,0.0179,0.0128,0.0127,0.0115,0.0121,0.0138,0.0116,0.0128,0.0128,0.0128,0,0.0304,0.0326,0.0365,0.039,0.0397,0.0413,0.0433,0.0445,0.0437,0.0426,0.0406,0.0373,0.0348,0.0304,0.0245,0.0251,0.0199,0.0163,0.0161,0.0135,0.0108,0.0107,0.0114,0.0127,0.0127,0.0127,0.0127,0,0.0339,0.0374,0.0406,0.0415,0.0437,0.0454,0.0467,0.0468,0.0489,0.0476,0.0486,0.0437,0.0427,0.0356,0.027,0.0258,0.0203,0.0179,0.0115,0.0113,0.0113,0.0111,0.0134,0.0134,0.0134,0.0134,0.0134,0,0.0378,0.0406,0.0425,0.0444,0.0489,0.0491,0.0534,0.0535,0.0551,0.0587,0.0529,0.0545,0.0438,0.039,0.0298,0.0209,0.0224,0.0124,0.0107,0.0124,0.0123,0.0121,0.012,0.0133,0.0133,0.0134,0.0134,0,0.041,0.0419,0.0462,0.0492,0.0505,0.054,0.0589,0.0621,0.0625,0.0674,0.0677,0.0634,0.0571,0.0459,0.035,0.0259,0.0167,0.0128,0.0154,0.014,0.0076,0.0077,0.0059,0.0058,0.0057,0.0057,0.0056,0,0.0428,0.0452,0.0499,0.053,0.0545,0.0597,0.0636,0.0657,0.0702,0.0736,0.077,0.0719,0.0696,0.0526,0.0358,0.0201,0.0171,0.0103,0.0078,0.0084,0.0069,0.0071,0.0073,0.009,0.009,0.009,0.009,0,0.0466,0.0479,0.0513,0.0577,0.0624,0.0685,0.0746,0.0793,0.0833,0.0873,0.0913,0.0895,0.0738,0.0577,0.0352,0.0245,0.0127,0.0095,0.0104,0.0104,0.0111,0.0097,0.0098,0.0088,0.0089,0.0089,0.0089,0.0089,0.0493,0.0524,0.0568,0.0629,0.0686,0.0765,0.0825,0.0895,0.097,0.1032,0.1014,0.0986,0.0807,0.0518,0.0326,0.0119,0.0131,0.005,0.0052,0.0053,0.0059,0.0064,0.0034,0.0034,0.0034,0.0034,0.0034,0,0.0528,0.0561,0.0619,0.0691,0.0758,0.0784,0.0891,0.0953,0.1047,0.1089,0.1112,0.0938,0.0757,0.0543,0.024,0.0063,0.0052,0.0,0.0025,0.0028,0.0031,0.0036,0.0004,0.0003,0.0002,0.0002,0,0,0.0545,0.06,0.0627,0.0734,0.079,0.0887,0.0951,0.1035,0.1088,0.1127,0.1105,0.1067,0.0815,0.0587,0.0349,0.0171,0.0139,0.0137,0.0182,0.0244,0.0248,0.0083,0.0098,0,0,0,0,0]}],[{"header":{"parameterUnit":"m.s-1","parameterCategory":2,"la1":30.2991,"la2":30.254,"lo1":-89.0895,"lo2":-89.0444,"dy":0.0017,"dx":0.0017,"nx":28,"ny":28,"refTime":"2025-05-30T09:00:00:Z","depth":"4","parameterNumber":2,"parameterNumberName":"U-component_of_CURRENTS"},"data":[0,0,0,0,0,0,0,0,0,0,0,0,0,0,0,0,0,0,0,0,0,0,0,0,0,0,0,0,0,0,0,0,0,0,0,0,0,0,0,0,0,0,0,0,0,0,0,0,0,0,0,0,0,0,0,0,0,0,0.1149,0.115,0,0.1151,0.1151,0.115,0.1164,0.1165,0.1165,0.1166,0.1196,0.1196,0.1196,0,0,0,0,0,0,0,0,0,0,0,0,0,0.1147,0.1146,0.1149,0.115,0.115,0.1151,0.1151,0.115,0.1164,0.1165,0.1165,0.1166,0.1196,0.1196,0.1196,0,0,0,0,0,0,0,0,0,0,0,0,0,0.1146,0.1146,0.1149,0.1158,0.1159,0.1151,0.1151,0.115,0.1164,0.1165,0.1165,0.1166,0.1196,0.1196,0.1196,0.1183,0,0,0.1198,0.1198,0,0,0,0,0,0,0,0,0.1146,0.1146,0.1157,0.1158,0.1159,0.116,0.1161,0.1163,0.1164,0.116,0.1166,0.1167,0.1187,0.1188,0.1183,0.1184,0.1185,0.1198,0.1198,0.1198,0.1198,0,0,0,0,0,0,0,0.1146,0.1146,0.1148,0.1157,0.1158,0.1159,0.1159,0.1161,0.1168,0.116,0.1162,0.1165,0.1188,0.1183,0.1184,0.1186,0.1198,0.1198,0.1198,0.1199,0.1254,0.1255,0,0,0,0,0,0,0.115,0.1146,0.1148,0.1148,0.1157,0.1158,0.1159,0.1157,0.1167,0.117,0.1164,0.1166,0.1182,0.1184,0.1185,0.1238,0.1198,0.1199,0.1199,0.1252,0.1254,0.1255,0,0,0,0,0,0,0.115,0.115,0.1148,0.1149,0.1149,0.1158,0.1155,0.1157,0.118,0.117,0.1174,0.119,0.1182,0.1185,0.1213,0.1237,0.1199,0.1199,0.1251,0.1253,0.1254,0.1301,0,0,0,0,0,0,0.1149,0.1149,0.1163,0.1149,0.1149,0.1158,0.1155,0.1156,0.118,0.1182,0.1193,0.1194,0.1183,0.1213,0.1214,0.1237,0.12,0.1249,0.1252,0.1254,0.1298,0.1304,0.1309,0,0,0,0,0,0.1149,0.1156,0.1163,0.1165,0.1163,0.1159,0.1159,0.1166,0.1181,0.119,0.1205,0.1196,0.1228,0.1214,0.1215,0.1239,0.1248,0.1251,0.1254,0.1295,0.1303,0.1309,0,0,0,0,0,0,0.116,0.1158,0.1166,0.1172,0.1176,0.1163,0.1176,0.1183,0.1201,0.1214,0.1209,0.1212,0.1247,0.1238,0.1223,0.1262,0.1237,0.124,0.1269,0.1276,0.1281,0.1296,0.12,0,0,0,0,0,0.1169,0.1179,0.1174,0.1184,0.1188,0.119,0.1196,0.1201,0.1208,0.1218,0.1226,0.1239,0.1252,0.1262,0.1269,0.1288,0.129,0.1305,0.1311,0.1316,0.1329,0.1348,0.1356,0.1264,0.1264,0.1264,0,0,0.1176,0.1179,0.1184,0.1189,0.1193,0.1199,0.1196,0.1211,0.1227,0.1218,0.1253,0.1262,0.1264,0.1288,0.1302,0.1287,0.1345,0.1319,0.1323,0.1334,0.1351,0.136,0.1368,0.1266,0.1265,0.1265,0,0,0.1185,0.1198,0.1206,0.1211,0.1225,0.1225,0.1237,0.1241,0.1259,0.1287,0.1289,0.1319,0.1334,0.1339,0.1344,0.1387,0.1377,0.139,0.1427,0.1445,0.1453,0.146,0.1477,0.1485,0.1389,0.1389,0.1389,0,0.1199,0.1202,0.121,0.1217,0.1227,0.1241,0.125,0.1266,0.1283,0.1301,0.1309,0.1352,0.1359,0.1387,0.1408,0.1401,0.1409,0.1399,0.1453,0.1459,0.1466,0.1482,0.149,0.1392,0.1391,0.1391,0.1391,0,0.1197,0.1216,0.1222,0.1238,0.125,0.1262,0.1279,0.1306,0.1336,0.1348,0.1397,0.141,0.1436,0.1443,0.1444,0.149,0.1481,0.146,0.1434,0.1478,0.1492,0.15,0.1395,0.1394,0.1394,0.1393,0,0,0.1187,0.1217,0.1222,0.1236,0.1264,0.1267,0.1309,0.1338,0.1371,0.1404,0.1443,0.1484,0.1501,0.1509,0.1512,0.1534,0.1591,0.1525,0.1525,0.1541,0.1637,0.1532,0.153,0.1579,0.158,0.1581,0.1631,0,0.1188,0.1205,0.1223,0.125,0.1257,0.1291,0.1326,0.1361,0.14,0.1442,0.1475,0.1516,0.1521,0.1546,0.1571,0.1587,0.1614,0.158,0.1594,0.1595,0.1495,0.1536,0.1586,0.1637,0.1638,0.164,0.164,0,0.1173,0.1189,0.1213,0.1255,0.1264,0.1291,0.1349,0.1382,0.1446,0.1482,0.1532,0.1555,0.1611,0.1603,0.1662,0.1641,0.1656,0.1662,0.1663,0.1555,0.1504,0.1583,0.1654,0.1653,0.1652,0.1651,0.165,0,0.1142,0.1181,0.1203,0.1214,0.1264,0.1298,0.1336,0.14,0.1437,0.1516,0.1552,0.1608,0.1649,0.1677,0.1709,0.1694,0.176,0.1729,0.1647,0.164,0.1699,0.1691,0.1773,0.1773,0.1773,0.1773,0.1772,0,0.1116,0.1136,0.1197,0.1205,0.1247,0.129,0.1346,0.1398,0.1469,0.1511,0.1576,0.1611,0.1674,0.1713,0.1728,0.1714,0.1777,0.1667,0.1647,0.1717,0.1711,0.1704,0.1695,0.1774,0.1774,0.1774,0.1773,0,0.1071,0.111,0.1141,0.1206,0.1233,0.1267,0.1352,0.1385,0.1466,0.1525,0.1556,0.1635,0.1686,0.1728,0.1778,0.1727,0.1729,0.1708,0.1797,0.178,0.1593,0.1586,0.1614,0.161,0.1608,0.1605,0.1603,0,0.1044,0.1056,0.1136,0.1163,0.12,0.1258,0.1296,0.1382,0.1416,0.1524,0.154,0.1622,0.1665,0.1645,0.1702,0.1714,0.1694,0.1678,0.1624,0.1599,0.1578,0.1576,0.1573,0.1599,0.1598,0.1598,0.1597,0,0.0994,0.1038,0.1067,0.1123,0.1172,0.1209,0.1272,0.1284,0.1377,0.1466,0.1488,0.1506,0.1555,0.1581,0.1605,0.161,0.1675,0.1649,0.1654,0.1603,0.1582,0.1563,0.1563,0.1587,0.1589,0.159,0.159,0,0.0968,0.0977,0.1027,0.1067,0.1124,0.1136,0.1176,0.1208,0.1249,0.1364,0.1373,0.1457,0.1543,0.1529,0.1552,0.1547,0.1518,0.1454,0.1469,0.148,0.1412,0.1364,0.1295,0,0,0,0,0,0.0934,0.0932,0.0963,0.0992,0.1044,0.1078,0.1145,0.1184,0.1273,0.1256,0.1308,0.1348,0.1371,0.1415,0.1383,0.1496,0.1527,0.1451,0.1461,0.1534,0.1545,0.1476,0,0,0,0,0,0,0.0909,0.0934,0.0934,0.0922,0.0931,0.097,0.101,0.1072,0.1064,0.1164,0.1186,0.1267,0.1313,0.1381,0.1359,0.1373,0.135,0.1511,0.1507,0.1528,0.1538,0.1547,0.148,0,0,0,0,0]},{"header":{"parameterUnit":"m.s-1","parameterCategory":2,"la1":30.2991,"la2":30.254,"lo1":-89.0895,"lo2":-89.0444,"dy":0.0017,"dx":0.0017,"nx":28,"ny":28,"refTime":"2025-05-30T09:00:00:Z","depth":"4","parameterNumber":3,"parameterNumberName":"V-component_of_CURRENTS"},"data":[0,0,0,0,0,0,0,0,0,0,0,0,0,0,0,0,0,0,0,0,0,0,0,0,0,0,0,0,0,0,0,0,0,0,0,0,0,0,0,0,0,0,0,0,0,0,0,0,0,0,0,0,0,0,0,0,0,0,0.0202,0.0202,0,0.0208,0.0208,0.0208,0.0203,0.0203,0.0203,0.0203,0.0212,0.0213,0.0213,0,0,0,0,0,0,0,0,0,0,0,0,0,0.0176,0.0177,0.0202,0.0202,0.0203,0.0208,0.0208,0.0208,0.0203,0.0203,0.0203,0.0203,0.0212,0.0213,0.0213,0,0,0,0,0,0,0,0,0,0,0,0,0,0.0184,0.0177,0.0202,0.0202,0.0202,0.0208,0.0208,0.0208,0.0203,0.0203,0.0203,0.0203,0.0212,0.0213,0.0213,0.022,0,0,0.0215,0.0215,0,0,0,0,0,0,0,0,0.0184,0.0185,0.0202,0.0202,0.0202,0.0205,0.0202,0.0212,0.0203,0.0202,0.0203,0.0203,0.0211,0.0212,0.0212,0.022,0.0221,0.0215,0.0215,0.0215,0.0216,0,0,0,0,0,0,0,0.0183,0.0185,0.0204,0.0202,0.0202,0.0197,0.0198,0.0204,0.0207,0.0202,0.0202,0.0204,0.0211,0.0211,0.0212,0.0221,0.0215,0.0215,0.0216,0.0216,0.0234,0.0234,0,0,0,0,0,0,0.0185,0.0185,0.0204,0.0204,0.0193,0.0198,0.0199,0.0204,0.0207,0.0207,0.0204,0.0204,0.0211,0.0211,0.0212,0.0228,0.0215,0.0216,0.0216,0.0234,0.0234,0.0234,0,0,0,0,0,0,0.0185,0.0187,0.0203,0.0195,0.0197,0.0199,0.0204,0.0204,0.0209,0.0208,0.0209,0.0209,0.021,0.0212,0.0222,0.0228,0.0216,0.0217,0.0234,0.0234,0.0234,0.0255,0,0,0,0,0,0,0.0184,0.0187,0.0193,0.0195,0.0197,0.0213,0.0204,0.0204,0.021,0.021,0.0213,0.0213,0.021,0.0221,0.0222,0.0229,0.0217,0.0234,0.0234,0.0234,0.0254,0.0256,0.0257,0,0,0,0,0,0.0183,0.0194,0.0193,0.0196,0.0205,0.0214,0.0214,0.0214,0.0211,0.0217,0.0217,0.0214,0.0223,0.0222,0.0223,0.023,0.0233,0.0234,0.0234,0.0253,0.0255,0.0257,0,0,0,0,0,0,0.0187,0.0194,0.0194,0.0206,0.0212,0.0213,0.022,0.0218,0.0223,0.0225,0.022,0.0221,0.023,0.0228,0.0226,0.0235,0.0226,0.0227,0.024,0.0242,0.0244,0.0248,0.0217,0,0,0,0,0,0.019,0.02,0.0204,0.0216,0.0219,0.022,0.0224,0.0225,0.0229,0.0231,0.023,0.023,0.0232,0.0236,0.0237,0.0247,0.023,0.025,0.0252,0.0253,0.0256,0.0233,0.0233,0.0235,0.0235,0.0235,0,0,0.0195,0.0201,0.0207,0.0217,0.0221,0.0232,0.0222,0.0233,0.0244,0.0232,0.0245,0.0238,0.0236,0.0244,0.0247,0.0244,0.0242,0.0254,0.0255,0.0257,0.0234,0.0233,0.0233,0.0236,0.0236,0.0236,0,0,0.0211,0.0215,0.0228,0.0235,0.0245,0.0246,0.0251,0.0255,0.0258,0.0268,0.026,0.0257,0.0263,0.026,0.0259,0.0272,0.0252,0.0271,0.0285,0.0262,0.0262,0.0261,0.0234,0.0231,0.0272,0.0273,0.0273,0,0.0217,0.0235,0.0234,0.0248,0.0258,0.0254,0.0271,0.0274,0.0281,0.0283,0.0276,0.0274,0.0271,0.0276,0.0278,0.0276,0.0257,0.0279,0.0264,0.0263,0.0263,0.0235,0.0231,0.0274,0.0273,0.0273,0.0273,0,0.0242,0.0258,0.0267,0.0284,0.0292,0.0308,0.0312,0.0318,0.0317,0.0313,0.0316,0.0306,0.0304,0.03,0.0294,0.0288,0.0274,0.0268,0.0259,0.0263,0.0234,0.023,0.0275,0.0275,0.0274,0.0274,0,0,0.0258,0.0281,0.0286,0.0301,0.0315,0.0326,0.0341,0.0352,0.0361,0.0354,0.0361,0.0352,0.0337,0.0335,0.0323,0.0303,0.0276,0.0285,0.0283,0.0258,0.022,0.0209,0.0202,0.0265,0.0265,0.0265,0.02,0,0.0281,0.0315,0.032,0.0354,0.0371,0.0373,0.0389,0.0395,0.0392,0.0395,0.0375,0.0377,0.0354,0.0353,0.0329,0.0294,0.0267,0.0294,0.022,0.0217,0.0207,0.0198,0.0263,0.0197,0.0196,0.0195,0.0194,0,0.0305,0.0326,0.0362,0.0392,0.04,0.0419,0.044,0.0454,0.0451,0.0447,0.0434,0.0414,0.0392,0.0371,0.0303,0.0321,0.0272,0.0237,0.0234,0.0214,0.0198,0.0193,0.0186,0.0187,0.0188,0.0188,0.0189,0,0.0318,0.0356,0.0388,0.0399,0.0428,0.0447,0.0465,0.047,0.0487,0.048,0.0483,0.0445,0.0435,0.037,0.0298,0.0298,0.0216,0.0207,0.0147,0.0146,0.0166,0.0168,0.0151,0.0151,0.0151,0.0152,0.0152,0,0.034,0.0366,0.0399,0.0417,0.0458,0.0471,0.051,0.0516,0.0531,0.0552,0.0513,0.0513,0.0434,0.0378,0.0304,0.0213,0.0217,0.0147,0.0129,0.0176,0.0179,0.0163,0.0165,0.0149,0.015,0.015,0.0151,0,0.0348,0.0369,0.0409,0.045,0.0466,0.0498,0.055,0.0574,0.0581,0.0607,0.0607,0.0564,0.0491,0.0401,0.0295,0.0228,0.0139,0.0104,0.0158,0.0145,0.008,0.0084,0.0029,0.0028,0.0027,0.0027,0.0026,0,0.0355,0.0376,0.0432,0.0462,0.0486,0.0535,0.057,0.0598,0.0627,0.0637,0.065,0.0591,0.0549,0.039,0.029,0.014,0.0119,0.0064,0.0071,0.0079,0.0067,0.0073,0.0078,0.0025,0.0025,0.0024,0.0024,0,0.0368,0.039,0.0422,0.0483,0.0529,0.0582,0.0636,0.0659,0.0691,0.0697,0.068,0.0599,0.0516,0.0392,0.0275,0.0169,0.0096,0.0055,0.0056,0.0063,0.0074,0.0064,0.007,0.0021,0.0022,0.0022,0.0022,0,0.0379,0.0403,0.0448,0.0501,0.0559,0.0613,0.0642,0.0678,0.0705,0.0715,0.0708,0.0617,0.0569,0.0406,0.03,0.0193,0.0163,0.012,0.0117,0.0118,0.0163,0.0192,0.0158,0,0,0,0,0,0.0388,0.0415,0.0463,0.0522,0.0581,0.0618,0.0679,0.0703,0.0733,0.0724,0.0719,0.0641,0.0485,0.0418,0.0309,0.0278,0.0139,0.0143,0.0087,0.0006,0.0009,0.0046,0,0,0,0,0,0,0.0393,0.0437,0.046,0.053,0.0573,0.0641,0.0682,0.0704,0.0702,0.0712,0.0633,0.0602,0.0452,0.0548,0.0303,0.0271,0.0216,0.0076,0.0073,0.0004,0.0007,0.001,0.0049,0,0,0,0,0]}]]